www.pogodaiklimat.ru

Погода и климат >> Архив погоды >> Украина >> Винница


АРХИВ ПОГОДЫ в Виннице

Время (UTC), дата Ветер
(напр.,м/с)
 
Видим.   Явления Облачность Т
(С)
Тd
(С)
f
(%)
Тe
(С)
Тes
(С)
Комфортность P
(гПа)
Po
(гПа)
Тmin
(С)
Tmax
(С)
R
(мм)
R24
(мм)
S
(см)
18 12.09 ЮЗ 3 13 км гроза без осадков {ливн. осадки} 10/6 600 м
[Cb cap Ac und]
+20.5 +17.6 83 +24 +24 комфорт 1001.9 968.2 +26.2 0.5
21 12.09 ЮЗ 4 13 км {гроза} 5/4 600 м
[Cb cap Ac trans]
+17.4 +15.1 86 +17 +17 тепло 1004.3 970.1
00 13.09 З 4 7000 м дымка {гроза} ясно +16.5 +15.1 91 +16 +16 тепло 1005.1 970.8
03 13.09 З 4 9000 м дымка 10/4 300 м
[St Ac und]
+15.6 +14.6 94 +15 +15 тепло 1006.6 972.1
06 13.09 З 8 13 км 10/8 270 м
[St Ac und]
+15.7 +13.9 89 +14 +14 тепло 1008.3 973.7 +15.3
09 13.09 СЗ 5 13 км 10/10 420 м
[St]
+16.3 +12.1 76 +15 +15 по сезону 1010.5 975.9
12 13.09 З 4 13 км 10/8 540 м
[Cb cap Ac und]
+16.9 +11.8 72 +16 +17 по сезону 1011.6 977.0
15 13.09 З 5 13 км {ливн. осадки} 8/4 600 м
[Sc Ac trans]
+16.4 +10.2 67 +16 +16 по сезону 1012.6 977.9
18 13.09 ЮЗ 2 13 км {ливн. осадки} ясно +14.0 +10.2 78 +14 +14 по сезону 1013.2 978.2 +17.7 0.0
21 13.09 З 2 13 км ясно +11.9 +9.3 84 +11 +11 по сезону 1013.8 978.6
00 14.09 ЮЗ 3 13 км 3/0
[Ac trans]
+11.0 +8.5 85 +9 +9 по сезону 1014.0 978.6
03 14.09 ЮЗ 3 13 км 4/0
[Ci fib]
+10.3 +8.2 87 +8 +8 по сезону 1014.4 978.9
06 14.09 Ю 5 13 км 8/0
[Ac trans Ci fib]
+13.5 +8.1 70 +12 +13 по сезону 1014.0 978.9 +10.1
09 14.09 Ю 5 13 км 4/0
[Ac trans Ci fib]
+21.3 +7.1 40 +22 +26 комфорт 1012.7 978.6
12 14.09 Ю 5 13 км 5/0
[Ci fib]
+25.3 +9.2 36 +26 +30 жарко 1011.0 977.4
15 14.09 Ю 7 13 км 3/0
[Ci fib]
+25.4 +7.3 32 +25 +26 комфорт 1010.1 976.5
18 14.09 Ю 4 13 км ясно +20.2 +7.3 43 +21 +21 комфорт 1009.4 975.3 +25.9
21 14.09 Ю 3 13 км ясно +18.3 +7.0 48 +19 +19 тепло 1008.7 974.4
00 15.09 Ю 4 13 км ясно +16.7 +8.3 58 +16 +16 тепло 1008.3 973.8
03 15.09 Ю 4 13 км ясно +14.8 +9.5 71 +14 +14 тепло 1008.1 973.4
06 15.09 З 6 13 км 6/0
[Ac trans]
+16.3 +8.9 62 +15 +16 тепло 1010.2 975.6 +14.3
09 15.09 СЗ 6 13 км 6/3 1000 м
[Sc Ac trans]
+17.1 +9.9 63 +16 +18 тепло 1013.1 978.5
12 15.09 СЗ 6 13 км 5/3 1000 м
[Sc Ci sp]
+19.2 +7.1 45 +19 +21 тепло 1014.4 980.0
15 15.09 СЗ 5 13 км 3/0
[Ci fib]
+18.5 +5.9 44 +18 +19 тепло 1015.5 980.9
18 15.09 СЗ 2 13 км 3/0
[Ci fib]
+14.1 +6.4 60 +14 +14 по сезону 1017.6 982.5 +20.3
21 15.09 штиль 0 13 км ясно +11.3 +5.9 69 +11 +11 по сезону 1019.1 983.6
00 16.09 штиль 0 13 км 3/0
[Ac trans]
+10.2 +6.5 78 +10 +10 по сезону 1019.8 984.1
03 16.09 В 3 13 км 4/0
[Ac trans Ci fib]
+8.3 +6.1 86 +6 +6 прохладно 1020.1 984.2
06 16.09 В 4 13 км 6/4 1000 м
[Sc Ac trans]
+13.6 +7.0 64 +12 +13 по сезону 1019.8 984.5 +8.1
09 16.09 В 7 13 км 4/0
[Ci fib]
+19.7 +6.4 42 +20 +22 тепло 1018.9 984.4
12 16.09 ЮВ 7 13 км 3/0
[Ci fib]
+24.2 +6.4 32 +24 +26 комфорт 1016.4 982.5
15 16.09 ЮВ 6 13 км 6/3 600 м
[Cb cap Ac trans]
+25.2 +8.5 35 +26 +26 жарко 1014.9 981.1
18 16.09 В 3 13 км 5/3 1000 м
[Sc Ac trans]
+19.9 +10.5 55 +22 +22 комфорт 1015.6 981.2 +25.4
21 16.09 ЮВ 5 13 км ясно +21.3 +10.3 49 +23 +23 комфорт 1015.8 981.6
00 17.09 В 4 13 км ясно +17.3 +11.2 67 +17 +17 тепло 1016.0 981.3
03 17.09 ЮВ 4 13 км 3/3 600 м
[Sc]
+18.2 +11.0 63 +18 +18 тепло 1015.0 980.5
06 17.09 ЮВ 4 13 км ясно +18.9 +11.9 64 +20 +21 тепло 1015.3 980.9 +15.3
09 17.09 Ю 7 13 км 5/0
[Ci fib]
+25.8 +11.9 42 +27 +29 жарко 1013.5 979.9
12 17.09 Ю 6 13 км 6/0
[Ci fib]
+29.2 +9.7 30 +29 +32 жарко 1011.7 978.5
15 17.09 Ю 6 13 км 9/0
[Ac trans Ci fib]
+28.1 +9.9 32 +28 +29 жарко 1009.3 976.1
18 17.09 ЮВ 4 13 км 10/4 1000 м
[Sc Ac und]
+24.2 +8.8 37 +25 +25 комфорт 1008.4 974.7 +30.1
21 17.09 Ю 4 13 км 10/3 1000 м
[Sc Ac und]
+22.5 +10.7 47 +24 +24 комфорт 1008.6 974.8
00 18.09 ЮЗ 4 13 км 8/0
[Ac trans]
+19.1 +11.4 61 +20 +20 тепло 1008.6 974.4
03 18.09 З 3 13 км 6/0
[Ac trans]
+15.9 +10.9 72 +15 +15 тепло 1010.0 975.4
06 18.09 З 4 13 км 4/0
[Ac trans Ci fib]
+17.9 +10.4 61 +18 +19 тепло 1011.7 977.2 +14.9
09 18.09 СЗ 6 13 км 6/3 1500 м
[Cu hum Ac trans]
+20.4 +7.8 44 +21 +23 комфорт 1013.1 978.9
12 18.09 З 7 13 км 8/3 1500 м
[Cu hum Ac trans]
+19.7 +5.5 39 +20 +21 тепло 1014.2 979.8
15 18.09 З 5 13 км 8/3 1000 м
[Sc Ac trans]
+19.0 +4.1 37 +19 +19 тепло 1014.7 980.2
18 18.09 З 2 13 км 3/0
[Ci fib]
+14.2 +6.2 59 +14 +14 тепло 1016.5 981.4 +21.6
21 18.09 СЗ 3 13 км ясно +11.0 +5.8 70 +9 +9 по сезону 1017.9 982.4
00 19.09 штиль 0 13 км ясно +10.3 +6.2 76 +10 +10 по сезону 1018.6 983.0
03 19.09 СЗ 2 13 км 3/0
[Ac trans]
+9.1 +6.2 82 +7 +7 по сезону 1019.0 983.2
06 19.09 С 2 13 км 4/0
[Ac trans]
+11.7 +6.8 72 +11 +12 по сезону 1019.7 984.2 +7.5
09 19.09 В 3 13 км 4/3 1000 м
[Sc Ac trans]
+16.6 +6.4 51 +16 +21 тепло 1019.1 984.2
12 19.09 СВ 3 13 км 8/3 1000 м
[Sc Ac trans]
+19.1 +3.4 35 +20 +22 тепло 1017.6 983.0

 

Местоположение метеостанции Винница (Винницкая область, Украина): широта 49.23 долгота 28.60 высота над уровнем моря 298 м.

В архиве по умолчанию представлена погода в Виннице за последнюю неделю. Архивные данные за месяц целиком и за предыдущие месяцы, начиная с января 2011 года, Вы можете получить, выбрав интересующий диапазон дат из раскрывающегося списка и нажав кнопку "Ввод!".

Внимание! Время в таблицах - всемирное. Для получения местного времени необходимо прибавить поправку, которая в Виннице равна 2 ч.

Смотрите также архив погоды в соседних городах и на ближайших метеорологических станциях:

Погода в Жмеринке (Винницкая область, Украина) (42 км)
Погода в Белополе (Винницкая область, Украина) (70 км)
Погода в Гайсине (Винницкая область, Украина) (75 км)
Погода в Хмельнике (Винницкая область, Украина) (76 км)
Погода в Могилев-Подольском (Винницкая область, Украина) (105 км)
Погода в Новой Ушице (Хмельницкая область, Украина) (106 км)
Погода в Жашкове (Черкасская область, Украина) (109 км)
Погода в Житомире (Житомирская область, Украина) (112 км)
Погода в Новоднестровске (Черновицкая область, Украина) (112 км)
Погода в Сороках (Молдова) (117 км)

Пояснения к столбцам:

Ветер - указаны скорость ветра в м/с - средняя за 10 мин, порывы в срок и между сроками (в фигурных скобках) и направление, откуда дует ветер: С - северный, СВ - северо-восточный, В - восточный, ЮВ - юго-восточный, Ю - южный, ЮЗ - юго-западный, З - западный, СЗ - северо-западный.
Видимость - горизонтальная дальность видимости в метрах или километрах. При видимости от 1 до 10 км при отсутствии осадков обычно наблюдается дымка, при ухудшении видимости до 1 км и менее - туман. В сухую погоду видимость может ухудшаться дымом, пылью или мглою.
Явления - указаны атмосферные явления, наблюдавшиеся в срок или в последний час перед сроком; фигурными скобками обозначены явления, наблюдавшиеся между сроками (за 1-3 часа до срока); квадратными скобками обозначены град или гололедные отложения с указанием их диаметра в мм.
Облачность - указаны через наклонную черту общая и нижняя облачность в баллах и высота нижней границы облаков в метрах; квадратными скобками обозначены формы облаков: Ci - перистые, Cs - перисто-слоистые, Cc - перисто-кучевые, Ac - высококучевые, As - высокослоистые, Sc - слоисто-кучевые, Ns - слоисто-дождевые, Cu - кучевые, Cb - кучево-дождевые. Подробнее классификацию облаков см. в Атласе облаков (PDF).
T - Температура воздуха - температура, измеренная на высоте 2 м над землей.
Td - Температура точки росы - температура, при понижении до которой содержащийся в воздухе водяной пар достигнет насыщения.
f - Относительная влажность воздуха - влажноcть воздуха, измеренная на высоте 2 м над землей.
Te - Эффективная температура - температура, которую ощущает одетый по сезону человек в тени. Характеристика душности погоды. При расчете учитывается влияние влажности воздуха и скорости ветра на теплоощущения человека.
Tes - Эффективная температура на солнце - температура, которую ощущает человек, с поправкой на солнечный нагрев. Характеристика знойности погоды. Зависит от высоты солнца над горизонтом, облачности и скорости ветра. Ночью, в пасмурную погоду, а также при ветре 12 м/с и более поправка равна нулю.
P - Атмосферное давление - приведенное к уровню моря атмосферное давление.
Po - Атмосферное давление - измеренное на уровне метеостанции атмосферное давление.
Tmin - Минимальная температура - минимум температуры воздуха на высоте 2 м над землей.
Tmax - Максимальная температура - максимум температуры воздуха на высоте 2 м над землей.
R - Количество осадков - Количество выпавших осадков за период времени, мм. При наведении курсора мыши на число - период времени, за который выпало указанное количество осадков.
R24 - Количество осадков - Количество выпавших осадков за 24 часа, мм.
S - Снежный покров - Высота снежного покрова, см. При наведении курсора мыши на число - состояние снежного покрова и степень покрытия местности в баллах.